Great Falls, MT

6:51 AM MDT on May 30, 2017 (GMT -0600)
Great Falls International

Weather History for KGTF - June, 2014

Change the Weather History Date:

Friday, June 27, 2014

  Actual Average Record
Temperature  
Mean Temperature 64 °F 63 °F  
Max Temperature 76 °F 77 °F 101 °F (1936)
Min Temperature 52 °F 48 °F 37 °F (1951)
Degree Days  
Heating Degree Days 1 4  
Month to date heating degree days 206 179  
Since 1 June heating degree days 206 179  
Since 1 July heating degree days 7994 7714  
Cooling Degree Days 0 2  
Month to date cooling degree days 0 27  
Year to date cooling degree days 0 34  
Since 1 June cooling degree days 0 27  
Growing Degree Days 14 (Base 50)    
Moisture  
Dew Point 51 °F    
Average Humidity 67    
Maximum Humidity 100    
Minimum Humidity 33    
Precipitation  
Precipitation 0.03 in 0.07 in 1.03 in (1944)
Month to date precipitation 4.18 2.35  
Year to date precipitation 11.29 8.08  
Snow  
Snow 0.00 in 0.00 in T in (1993)
Month to date snowfall 0.0 0.3  
Since 1 June snowfall 0.0 0.3  
Since 1 July snowfall 76.4 63.5  
Snow Depth 0.00 in    
Sea Level Pressure  
Sea Level Pressure 29.72 in    
Wind  
Wind Speed 8 mph (SW)    
Max Wind Speed 26 mph    
Max Gust Speed 35 mph    
Visibility 9 miles    
Events Rain    
T = Trace of Precipitation, MM = Missing Value Source: NWS Daily Summary

Daily Weather History Graph

Daily Weather History Graph

Search for Another Location

Airport or City:

Trip Planner

Search our weather history database for the weather conditions in past years. The results will help you decide how hot, cold, wet, or windy it might be!

Date:

Astronomy

Jun. 27, 2014 Rise Set
Actual Time 5:30 AM MDT 9:26 PM MDT
Civil Twilight 4:49 AM MDT 10:07 PM MDT
Nautical Twilight 3:54 AM MDT 11:02 PM MDT
Astronomical Twilight 2:26 AM MDT 12:29 AM MDT
Moon 6:11 AM MDT (6/27) 9:25 PM MDT (6/27)
Length of Visible Light 17h 17m
Length of Day
15h 56m
New Moon, 0% of the Moon is Illuminated
Jun 27
New Moon
Jul 5
First Quarter
Jul 12
Full
Jul 18
Last Quarter
Jul 26
New

Hourly Weather History & Observations

Time (MDT) Temp. Dew Point Humidity Pressure Visibility Wind Dir Wind Speed Gust Speed Precip Events Conditions
12:00 AM 55.4 °F 51.8 °F 88% 29.81 in 10.0 mi NE 3.5 mph - 0.00 in Rain Light Rain
12:09 AM 55.4 °F 51.8 °F 88% 29.80 in 4.0 mi Calm Calm - 0.01 in Rain Rain
12:45 AM 53.6 °F 53.6 °F 100% 29.80 in 10.0 mi Calm Calm - 0.02 in   Overcast
12:53 AM 54.0 °F 53.1 °F 97% 29.76 in 10.0 mi WNW 4.6 mph - 0.02 in   Overcast
1:02 AM 53.6 °F 51.8 °F 94% 29.79 in 10.0 mi Calm Calm - N/A   Overcast
1:12 AM 53.6 °F 51.8 °F 94% 29.78 in 10.0 mi Calm Calm - N/A   Mostly Cloudy
1:26 AM 53.6 °F 51.8 °F 94% 29.78 in 10.0 mi Calm Calm - N/A   Mostly Cloudy
1:53 AM 53.1 °F 53.1 °F 100% 29.73 in 10.0 mi WSW 3.5 mph - N/A   Overcast
2:18 AM 53.6 °F 53.6 °F 100% 29.76 in 10.0 mi SW 4.6 mph - N/A   Overcast
2:53 AM 53.1 °F 53.1 °F 100% 29.75 in 10.0 mi SSW 3.5 mph - N/A   Overcast
3:53 AM 53.1 °F 53.1 °F 100% 29.73 in 10.0 mi Calm Calm - N/A   Overcast
4:53 AM 52.0 °F 52.0 °F 100% 29.73 in 10.0 mi Calm Calm - N/A   Mostly Cloudy
5:53 AM 52.0 °F 52.0 °F 100% 29.73 in 10.0 mi SE 3.5 mph - N/A   Mostly Cloudy
6:53 AM 53.1 °F 53.1 °F 100% 29.73 in 3.0 mi ESE 4.6 mph - N/A   Partly Cloudy
6:55 AM 53.6 °F 53.6 °F 100% 29.76 in 1.8 mi ESE 3.5 mph - N/A   Partly Cloudy
6:57 AM 53.6 °F 53.6 °F 100% 29.76 in 0.8 mi ESE 3.5 mph - N/A   Mist
7:09 AM 55.4 °F 53.6 °F 94% 29.76 in 1.0 mi East 3.5 mph - N/A   Mostly Cloudy
7:11 AM 55.4 °F 53.6 °F 94% 29.76 in 3.0 mi ESE 3.5 mph - N/A   Mostly Cloudy
7:53 AM 57.0 °F 55.0 °F 93% 29.73 in 10.0 mi SE 4.6 mph - N/A   Overcast
8:53 AM 62.1 °F 54.0 °F 75% 29.71 in 10.0 mi SW 11.5 mph - N/A   Overcast
9:53 AM 64.0 °F 53.1 °F 67% 29.71 in 10.0 mi WSW 11.5 mph - N/A   Clear
10:53 AM 68.0 °F 48.9 °F 50% 29.68 in 10.0 mi West 11.5 mph 21.9 mph N/A   Clear
11:53 AM 68.0 °F 48.0 °F 49% 29.68 in 10.0 mi WSW 12.7 mph - N/A   Overcast
12:53 PM 62.1 °F 52.0 °F 70% 29.70 in 10.0 mi WNW 9.2 mph 26.5 mph 0.00 in Rain Light Rain
1:53 PM 69.1 °F 46.9 °F 45% 29.67 in 10.0 mi WSW 9.2 mph - 0.00 in   Scattered Clouds
2:53 PM 75.0 °F 45.0 °F 34% 29.65 in 10.0 mi WNW 11.5 mph 19.6 mph N/A   Partly Cloudy
3:53 PM 75.0 °F 45.0 °F 34% 29.65 in 10.0 mi West 9.2 mph - N/A   Clear
4:53 PM 71.1 °F 46.0 °F 41% 29.65 in 10.0 mi WSW 9.2 mph - N/A   Overcast
5:53 PM 73.0 °F 50.0 °F 44% 29.64 in 10.0 mi SW 9.2 mph - N/A   Partly Cloudy
6:53 PM 66.9 °F 48.0 °F 51% 29.66 in 10.0 mi SW 11.5 mph - N/A   Scattered Clouds
7:53 PM 57.0 °F 52.0 °F 83% 29.70 in 9.0 mi West 16.1 mph - 0.01 in Rain Light Rain
8:53 PM 59.0 °F 53.1 °F 81% 29.70 in 10.0 mi WSW 8.1 mph - 0.02 in   Overcast
9:53 PM 57.0 °F 50.0 °F 77% 29.70 in 10.0 mi SW 12.7 mph - N/A   Clear
10:53 PM 55.9 °F 48.0 °F 75% 29.70 in 10.0 mi SSW 8.1 mph - N/A   Clear
11:53 PM 55.0 °F 48.0 °F 77% 29.70 in 10.0 mi SSW 10.4 mph - N/A   Clear